星链-30952 (STARLINK-30952 )

导读 | 星芒AI

STARLINK-30952 是 SpaceX Starlink 卫星互联网项目中的第 30952 颗卫星,属于低轨通信卫星群。该卫星旨在为全球用户提供高速、低延迟的互联网服务,特别服务于网络基础设施薄弱的地区。它采用可重复使用发射技术,由猎鹰 9 号火箭送入近地轨道。Starlink 项目计划部署数万颗卫星,以构建覆盖全球的宽带网络。STARLINK-30952 的成功部署进一步增强了 Starlink 网络的稳定性和覆盖范围。

基本信息
目录编号:
58405
目录名称:
STARLINK-30952
国际标识:
2023-180D
轨道中心:
EARTH
卫星名称:
星链-30952
卫星全名:
星链-30952 (STARLINK-30952 )
卫星状态:
在轨 (已飞行758 天)
发射日期:
2023-11-22 UTC
国别 :
美国 (US)
星等 :
--
轨道信息
数据来源 国际轨道数据 AOE轨道数据
星历时间 2025-12-19T00:05:16+0800
1天前
查看轨道信息
2025-12-14T11:00:00+0800
5天前
查看轨道信息
半长轴 6937.202km 6937.202km
偏心率 0.0001696 0.0001479
轨道倾角 43.003° 43.001°
近地点辐角 267.462° 260.070°
升交点赤经 136.610° 161.306°
平近点角 92.603° 325.652°
近地点 557.89km 558.04km
远地点 560.244km 560.094km
周期 95.838分钟 95.838分钟
每日圈数 15.025409 15.025409
详细信息
固有亮度:
5
最大亮度:
0.3
卫星平台:
Starlink v2.0 mini
覆盖范围:
全球
运营商:
太空探索技术公司
运营商所在国:
美国
制造商(研发单位):
太空探索技术公司
制造商所在国:
美国
使用方式:
暂无
卫星简介
星链(Starlink)计划是由太空探索技术公司(SpaceX)提出的一个巨型低轨卫星互联网星座项目,计划在2019年至2024年间在太空搭建由约1.2万颗卫星组成的“星链”网络,其中1584颗将部署在地球上空550千米处的近地轨道,并从2020年开始工作。该卫星仍在工作。
2D轨道图
3D轨道图
轨道高度分析图
轨道倾角分析图
轨道综合分析图
查看轨道综合分析图